Weather History for Lincoln, IL

Change the Weather History Date:

Thursday, January 9, 2014

  Actual Average (KSPI) Record (KSPI)
Temperature  
Mean Temperature 22 °F 27 °F  
Max Temperature 32 °F 35 °F 60 °F (1880)
Min Temperature 13 °F 19 °F -13 °F (1886)
Degree Days  
Heating Degree Days 42 38  
Month to date heating degree days 342  
Since 1 July heating degree days 2482  
Cooling Degree Days 0 0  
Month to date cooling degree days 0  
Year to date cooling degree days 0  
Moisture  
Dew Point 21 °F    
Average Humidity 87    
Maximum Humidity 99    
Minimum Humidity 73    
Precipitation  
Precipitation 0.00 in 0.06 in 1.46 in (1901)
Month to date precipitation 0.59  
Year to date precipitation 0.59  
Snow  
Snow 0.00 in 0.20 in 8.00 in (1987)
Month to date snowfall 1.9  
Since 1 July snowfall 8.1  
Snow Depth -    
Sea Level Pressure  
Sea Level Pressure 30.34 in    
Wind  
Wind Speed 7 mph (SE)    
Max Wind Speed 10 mph    
Max Gust Speed -    
Visibility 6 miles    
Events Rain , Snow    
T = Trace of Precipitation, MM = Missing Value Source: NWS Daily Summary

Daily Weather History Graph

Daily Weather History Graph

Search for Another Location

Airport:

Trip Planner

Search our weather history database for the weather conditions in past years. The results will help you decide how hot, cold, wet, or windy it might be!

Date:

Astronomy

Jan. 09, 2014 Rise Set
Actual Time 7:19 AM CST 4:49 PM CST
Civil Twilight 6:49 AM CST 5:20 PM CST
Nautical Twilight 6:15 AM CST 5:53 PM CST
Astronomical Twilight 5:42 AM CST 6:26 PM CST
Moon 12:16 PM CST (1/9) 1:26 AM CST (1/9)
Length of Visible Light 10h 30m
Length of Day
9h 30m
Waxing Gibbous, 66% of the Moon is Illuminated
Jan 9
Waxing Gibbous
Jan 15
Full
Jan 23
Last Quarter
Jan 30
New
Feb 6
First Quarter

Hourly Weather History & Observations

Time (CST) Temp. Windchill Dew Point Humidity Pressure Visibility Wind Dir Wind Speed Gust Speed Precip Events Conditions
12:15 AM 16.7 °F 7.2 °F 9.5 °F 73% 30.51 in 10.0 mi ENE 6.9 mph - N/A   Overcast
12:35 AM 16.5 °F 6.9 °F 10.4 °F 77% 30.51 in 10.0 mi ENE 6.9 mph - N/A   Overcast
12:55 AM 16.2 °F 6.5 °F 10.4 °F 78% 30.50 in 10.0 mi ENE 6.9 mph - N/A   Mostly Cloudy
1:15 AM 14.9 °F 5.0 °F 10.4 °F 82% 30.50 in 10.0 mi ENE 6.9 mph - N/A   Scattered Clouds
1:35 AM 14.0 °F 5.1 °F 9.3 °F 82% 30.50 in 10.0 mi NE 5.8 mph - N/A   Clear
1:55 AM 14.0 °F 3.9 °F 8.1 °F 77% 30.50 in 10.0 mi ENE 6.9 mph - N/A   Clear
2:15 AM 14.5 °F 5.7 °F 8.2 °F 76% 30.50 in 10.0 mi ENE 5.8 mph - N/A   Clear
2:35 AM 14.0 °F 5.1 °F 7.7 °F 76% 30.50 in 10.0 mi ENE 5.8 mph - N/A   Clear
2:55 AM 13.8 °F 6.2 °F 7.7 °F 77% 30.50 in 10.0 mi ENE 4.6 mph - N/A   Scattered Clouds
3:15 AM 13.6 °F 6.0 °F 8.1 °F 78% 30.50 in 10.0 mi East 4.6 mph - N/A   Scattered Clouds
3:35 AM 13.8 °F 4.9 °F 8.2 °F 78% 30.49 in 10.0 mi East 5.8 mph - N/A   Scattered Clouds
3:55 AM 14.5 °F 4.6 °F 8.6 °F 77% 30.48 in 10.0 mi ENE 6.9 mph - N/A   Mostly Cloudy
4:15 AM 14.9 °F 5.0 °F 9.1 °F 78% 30.48 in 10.0 mi East 6.9 mph - N/A   Overcast
4:35 AM 15.3 °F 6.6 °F 9.7 °F 79% 30.47 in 10.0 mi East 5.8 mph - N/A   Overcast
4:55 AM 15.8 °F 7.2 °F 10.4 °F 79% 30.47 in 10.0 mi East 5.8 mph - N/A   Overcast
5:15 AM 16.5 °F 8.1 °F 11.3 °F 80% 30.47 in 10.0 mi East 5.8 mph - N/A   Overcast
5:35 AM 16.9 °F 8.5 °F 12.0 °F 81% 30.46 in 10.0 mi ESE 5.8 mph - N/A   Overcast
5:55 AM 18.1 °F 8.9 °F 12.4 °F 78% 30.46 in 10.0 mi ESE 6.9 mph - N/A   Overcast
6:15 AM 18.1 °F 7.1 °F 12.6 °F 79% 30.45 in 10.0 mi ESE 9.2 mph - N/A   Overcast
6:35 AM 18.3 °F 8.2 °F 13.1 °F 80% 30.44 in 10.0 mi ESE 8.1 mph - N/A   Overcast
6:55 AM 18.5 °F 7.5 °F 13.6 °F 81% 30.44 in 10.0 mi ESE 9.2 mph - N/A   Overcast
7:15 AM 19.0 °F 9.0 °F 14.2 °F 81% 30.43 in 7.0 mi East 8.1 mph - N/A Snow Light Snow
7:35 AM 19.9 °F 11.1 °F 15.1 °F 81% 30.43 in 10.0 mi East 6.9 mph - N/A   Overcast
7:55 AM 20.3 °F 11.5 °F 15.6 °F 82% 30.42 in 10.0 mi ESE 6.9 mph - N/A Snow Light Snow
8:15 AM 21.0 °F 13.4 °F 16.7 °F 83% 30.42 in 4.0 mi ESE 5.8 mph - N/A Snow Light Snow
8:35 AM 21.7 °F 13.2 °F 17.6 °F 84% 30.42 in 10.0 mi ESE 6.9 mph - N/A   Overcast
8:55 AM 22.1 °F 12.8 °F 18.1 °F 85% 30.42 in 10.0 mi SE 8.1 mph - N/A   Overcast
9:15 AM 22.1 °F 12.8 °F 18.1 °F 85% 30.42 in 5.0 mi SE 8.1 mph - N/A   Overcast
9:35 AM 22.6 °F 13.4 °F 18.7 °F 85% 30.42 in 2.5 mi SE 8.1 mph - N/A Snow Light Snow
9:55 AM 23.4 °F 14.3 °F 19.6 °F 85% 30.41 in 1.8 mi SE 8.1 mph - N/A Snow Light Snow
10:15 AM 23.9 °F 15.8 °F 20.3 °F 86% 30.40 in 1.5 mi SE 6.9 mph - N/A Snow Light Snow
10:35 AM 24.8 °F 16.1 °F 21.2 °F 86% 30.40 in 1.5 mi SE 8.1 mph - N/A Snow Light Snow
10:55 AM 25.3 °F 18.5 °F 21.9 °F 87% 30.39 in 1.5 mi SE 5.8 mph - N/A Snow Light Snow
11:15 AM 26.2 °F 18.6 °F 22.8 °F 87% 30.37 in 1.0 mi SE 6.9 mph - N/A Snow Light Snow
11:35 AM 26.6 °F 21.2 °F 23.5 °F 88% 30.35 in 1.0 mi SE 4.6 mph - N/A Snow Light Snow
11:55 AM 27.5 °F 22.2 °F 24.6 °F 89% 30.33 in 1.2 mi SE 4.6 mph - N/A Snow Light Snow
12:15 PM 28.2 °F 22.0 °F 25.2 °F 88% 30.32 in 2.5 mi SE 5.8 mph - N/A Snow Light Snow
12:35 PM 28.4 °F 22.2 °F 25.7 °F 90% 30.30 in 1.8 mi SE 5.8 mph - N/A Snow Light Snow
12:55 PM 28.9 °F 23.9 °F 25.9 °F 88% 30.29 in 7.0 mi SE 4.6 mph - N/A   Overcast
1:15 PM 29.3 °F 22.3 °F 26.2 °F 88% 30.28 in 3.0 mi SE 6.9 mph - N/A   Overcast
1:35 PM 29.3 °F 25.6 °F 26.6 °F 90% 30.27 in 1.2 mi ESE 3.5 mph - N/A Snow Light Snow
1:55 PM 29.3 °F 23.2 °F 26.6 °F 90% 30.26 in 2.5 mi ESE 5.8 mph - N/A Snow Light Snow
2:15 PM 29.3 °F 21.5 °F 26.6 °F 90% 30.26 in 2.5 mi SE 8.1 mph - N/A Snow Light Snow
2:35 PM 29.3 °F 21.5 °F 27.0 °F 91% 30.26 in 1.5 mi SE 8.1 mph - N/A Snow Light Snow
2:55 PM 29.3 °F 23.2 °F 27.0 °F 91% 30.26 in 2.0 mi ESE 5.8 mph - N/A Snow Light Snow
3:15 PM 29.3 °F 24.3 °F 27.3 °F 92% 30.25 in 1.5 mi ESE 4.6 mph - N/A Snow Light Snow
3:35 PM 29.7 °F 23.7 °F 27.5 °F 92% 30.26 in 1.8 mi SE 5.8 mph - N/A Snow Light Snow
3:55 PM 29.8 °F 26.3 °F 28.2 °F 94% 30.26 in 2.5 mi SE 3.5 mph - N/A Rain Light Freezing Rain
4:15 PM 30.0 °F - 28.4 °F 94% 30.25 in 4.0 mi Calm Calm - N/A   Overcast
5:15 PM 30.7 °F 24.1 °F 28.4 °F 91% 30.24 in 7.0 mi SSE 6.9 mph - N/A   Overcast
5:35 PM 30.9 °F 23.5 °F 28.8 °F 92% 30.24 in 5.0 mi SSE 8.1 mph - N/A   Overcast
5:55 PM 30.9 °F 25.2 °F 28.9 °F 92% 30.24 in 5.0 mi SSE 5.8 mph - N/A   Overcast
6:15 PM 31.1 °F 24.5 °F 29.3 °F 93% 30.24 in 7.0 mi South 6.9 mph - N/A   Overcast
6:35 PM 31.1 °F 25.4 °F 29.3 °F 93% 30.24 in 7.0 mi South 5.8 mph - N/A   Overcast
6:55 PM 31.5 °F 26.8 °F 29.8 °F 94% 30.23 in 7.0 mi South 4.6 mph - N/A   Overcast
7:15 PM 31.5 °F 25.8 °F 30.0 °F 94% 30.22 in 7.0 mi South 5.8 mph - N/A   Overcast
7:35 PM 31.6 °F 25.1 °F 30.2 °F 94% 30.22 in 7.0 mi South 6.9 mph - N/A   Overcast
7:55 PM 32.0 °F 24.8 °F 30.6 °F 94% 30.22 in 7.0 mi South 8.1 mph - N/A   Overcast
8:15 PM 32.0 °F 24.2 °F 30.6 °F 94% 30.21 in 7.0 mi South 9.2 mph - N/A   Overcast
8:35 PM 32.0 °F 24.8 °F 31.1 °F 96% 30.21 in 5.0 mi South 8.1 mph - N/A   Overcast
8:55 PM 32.0 °F 24.8 °F 31.1 °F 96% 30.21 in 5.0 mi South 8.1 mph - N/A   Overcast
9:15 PM 32.0 °F 24.8 °F 31.1 °F 96% 30.21 in 5.0 mi South 8.1 mph - N/A   Overcast
9:35 PM 32.0 °F 24.8 °F 31.6 °F 99% 30.20 in 5.0 mi South 8.1 mph - N/A   Overcast
9:55 PM 32.2 °F 25.0 °F 31.6 °F 98% 30.19 in 5.0 mi South 8.1 mph - N/A   Overcast
10:15 PM 32.2 °F 25.0 °F 31.8 °F 99% 30.19 in 5.0 mi South 8.1 mph - N/A   Overcast
10:35 PM 32.4 °F 24.6 °F 32.0 °F 99% 30.19 in 5.0 mi South 9.2 mph - N/A   Overcast
10:55 PM 32.5 °F 24.8 °F 32.0 °F 98% 30.18 in 5.0 mi South 9.2 mph - N/A   Overcast
11:15 PM 32.7 °F 24.5 °F 32.0 °F 97% 30.17 in 7.0 mi South 10.4 mph - N/A   Overcast
11:35 PM 32.9 °F 25.9 °F 32.0 °F 96% 30.17 in 5.0 mi South 8.1 mph - N/A   Overcast
11:55 PM 32.9 °F 25.3 °F 32.0 °F 96% 30.17 in 5.0 mi South 9.2 mph - N/A   Overcast